Regional Weather Roundup
Issued by NWS

Home | Current Version | Previous Version | Text Only | Print | Product List | Glossary Off
Versions: 1 2 3 4 5 6 7 8 9 10 11 12 13 14 15 16 17 18 19 20 21 22 23 24 25 26 27 28 29 30 31 32 33 34 35 36 37 38 39 40 41 42 43 44 45 46 47 48 49 50

000
ASUS43 KLMK 141702
RWRKY
KENTUCKY REGIONAL WEATHER ROUNDUP
NATIONAL WEATHER SERVICE LOUISVILLE KY
1200 PM EST SUN FEB 14 2016

NOTE "FAIR" INDICATES FEW OR NO CLOUDS BELOW 12,000 FEET
WITH NO SIGNIFICANT WEATHER AND/OR OBSTRUCTIONS TO VISIBILITY.

KYZ001>023-026-027-061>063-070>075-141800-
WESTERN AND SOUTH CENTRAL KENTUCKY

CITY           SKY/WX    TMP DP  RH WIND       PRES   REMARKS
PADUCAH        LGT SNOW  25  20  81 E10       30.19F WCI  15
HENDERSON      CLOUDY    21  18  86 SE8       30.25S WCI  12
OWENSBORO      LGT SNOW  22  19  88 SE14      30.26F VSB 3/4 WCI   9
HOPKINSVILLE   FLURRIES  25  19  80 E6        30.26F WCI  18
BOWLING GREEN  SNOW      23  19  85 E10       30.29F VSB 1/2 WCI  12
GLASGOW        NOT AVBL
$$

KYZ024-025-028>034-038-045-046-053-141800-
NORTH CENTRAL KENTUCKY

CITY           SKY/WX    TMP DP  RH WIND       PRES   REMARKS
LOUISVILLE/SDF CLOUDY    22   9  57 SE12      30.31F WCI  10
LOUISVILLE/LOU CLOUDY    20  10  65 E12G20    30.32F WCI   8
FORT KNOX      FLURRIES  21  10  63 E15       30.25F WCI   8
$$

KYZ035>037-039>044-047>052-055>060-089>105-141800-
NORTHEAST KENTUCKY

CITY           SKY/WX    TMP DP  RH WIND       PRES   REMARKS
LEXINGTON      CLOUDY    18  10  71 E13       30.34F WCI   5
COVINGTON      CLOUDY    18   5  57 SE12      30.35F WCI   5
FRANKFORT      CLOUDY    18  11  74 E12       30.33F WCI   5
$$

KYZ054-064>069-076>088-106>120-141800-
SOUTHEAST KENTUCKY

CITY           SKY/WX    TMP DP  RH WIND       PRES   REMARKS
JACKSON        CLOUDY    17   8  67 VRB5      30.32F WCI  10
LONDON         CLOUDY    20  10  65 E9        30.29F WCI   9
SOMERSET       NOT AVBL
MIDDLESBORO    NOT AVBL
MONTICELLO     CLOUDY    23  14  68 VRB7      30.32F WCI  15
$$




USA.gov is the U.S. government's official web portal to all federal, state and local government web resources and services.